QPF
0.00 0.00 0.02 0.04 0.02 0.02 0.02 0.02 0.02 0.03 0.03 0.03 0.02 0.02 0.02 0.02 0.03 0.04 0.05 0.05 0.06 0.08 0.11 0.11 0.09 0.10 0.10 0.10 0.09 0.07 0.05 0.05 0.04 0.03 0.04 0.04 0.04 0.04 0.02 0.02 0.02 0.02 0.04
0.00 0.00 0.03 0.04 0.03 0.03 0.02 0.02 0.01 0.01 0.01 0.01 0.02 0.02 0.02 0.02 0.03 0.03 0.03 0.04 0.06 0.07 0.08 0.09 0.09 0.09 0.09 0.08 0.08 0.07 0.05 0.04 0.04 0.02 0.02 0.02 0.04 0.04 0.03 0.04 0.03 0.03 0.03
0.00 0.01 0.02 0.04 0.03 0.03 0.03 0.01 0.01 0.01 0.01 0.01 0.01 0.02 0.02 0.02 0.02 0.02 0.02 0.03 0.04 0.05 0.06 0.07 0.07 0.06 0.06 0.06 0.06 0.06 0.04 0.03 0.03 0.02 0.02 0.03 0.04 0.05 0.05 0.05 0.04 0.03 0.03
0.00 0.01 0.02 0.03 0.04 0.04 0.04 0.03 0.03 0.02 0.02 0.02 0.02 0.02 0.01 0.01 0.02 0.02 0.02 0.03 0.04 0.04 0.05 0.05 0.05 0.04 0.04 0.04 0.04 0.03 0.02 0.02 0.02 0.02 0.02 0.04 0.05 0.06 0.06 0.07 0.05 0.04 0.04
0.00 0.01 0.02 0.04 0.04 0.04 0.04 0.04 0.05 0.04 0.04 0.03 0.02 0.02 0.01 0.01 0.02 0.02 0.02 0.02 0.03 0.03 0.03 0.04 0.04 0.02 0.02 0.03 0.03 0.02 0.01 0.01 0.01 0.02 0.02 0.03 0.04 0.06 0.05 0.06 0.06 0.05 0.04
0.01 0.02 0.03 0.05 0.04 0.05 0.04 0.05 0.05 0.05 0.04 0.04 0.04 0.03 0.02 0.02 0.01 0.02 0.02 0.02 0.02 0.02 0.02 0.03 0.02 0.02 0.02 0.02 0.02 0.02 0.01 0.01 0.01 0.01 0.01 0.01 0.03 0.04 0.04 0.04 0.04 0.04 0.03
0.01 0.02 0.03 0.05 0.04 0.04 0.03 0.04 0.05 0.06 0.06 0.06 0.05 0.04 0.02 0.01 0.01 0.01 0.02 0.03 0.03 0.03 0.02 0.01 0.02 0.02 0.02 0.02 0.02 0.02 0.01 0.01 0.00 0.01 0.01 0.01 0.03 0.05 0.05 0.04 0.04 0.05 0.04
0.01 0.03 0.04 0.05 0.04 0.04 0.03 0.04 0.06 0.08 0.09 0.06 0.04 0.03 0.02 0.01 0.01 0.02 0.02 0.03 0.03 0.04 0.03 0.02 0.02 0.02 0.03 0.03 0.03 0.02 0.01 0.01 0.00 0.00 0.01 0.02 0.03 0.05 0.06 0.05 0.04 0.04 0.03
0.02 0.04 0.05 0.05 0.04 0.04 0.03 0.05 0.09 0.10 0.09 0.05 0.02 0.01 0.01 0.01 0.01 0.01 0.02 0.03 0.03 0.04 0.03 0.02 0.01 0.01 0.02 0.03 0.03 0.02 0.01 0.01 0.00 0.00 0.01 0.03 0.04 0.05 0.05 0.05 0.04 0.04 0.03
0.04 0.06 0.07 0.06 0.05 0.03 0.03 0.04 0.06 0.06 0.07 0.06 0.03 0.02 0.01 0.01 0.01 0.02 0.02 0.02 0.03 0.03 0.02 0.01 0.01 0.01 0.01 0.02 0.02 0.02 0.01 0.01 0.00 0.01 0.03 0.05 0.05 0.05 0.05 0.04 0.04 0.04 0.04
0.05 0.08 0.09 0.09 0.06 0.04 0.02 0.02 0.03 0.02 0.03 0.04 0.03 0.01 0.01 0.01 0.02 0.02 0.01 0.03 0.04 0.03 0.02 0.01 0.01 0.01 0.01 0.02 0.02 0.02 0.01 0.01 0.01 0.01 0.03 0.05 0.04 0.04 0.04 0.04 0.04 0.04 0.04
0.06 0.12 0.13 0.14 0.08 0.04 0.03 0.02 0.02 0.02 0.02 0.02 0.02 0.02 0.02 0.01 0.01 0.02 0.02 0.03 0.06 0.03 0.02 0.01 0.01 0.02 0.02 0.02 0.02 0.02 0.01 0.01 0.02 0.02 0.03 0.04 0.04 0.04 0.03 0.03 0.03 0.03 0.03
0.06 0.14 0.17 0.19 0.10 0.05 0.03 0.02 0.02 0.02 0.02 0.02 0.02 0.02 0.02 0.02 0.01 0.02 0.02 0.03 0.05 0.03 0.01 0.01 0.00 0.02 0.03 0.03 0.02 0.01 0.01 0.02 0.02 0.02 0.02 0.03 0.03 0.03 0.03 0.03 0.03 0.03 0.03
0.05 0.13 0.18 0.19 0.11 0.06 0.04 0.02 0.02 0.02 0.02 0.01 0.02 0.02 0.02 0.02 0.01 0.02 0.02 0.01 0.02 0.02 0.01 0.00 0.00 0.01 0.04 0.04 0.02 0.01 0.01 0.02 0.02 0.02 0.02 0.02 0.03 0.03 0.03 0.03 0.03 0.02 0.02
0.04 0.12 0.15 0.18 0.12 0.07 0.05 0.03 0.02 0.02 0.02 0.02 0.02 0.02 0.02 0.02 0.02 0.02 0.02 0.01 0.01 0.01 0.00 0.00 0.00 0.01 0.04 0.07 0.05 0.02 0.01 0.01 0.02 0.02 0.02 0.02 0.02 0.02 0.03 0.03 0.04 0.03 0.03
0.03 0.08 0.12 0.15 0.14 0.07 0.06 0.04 0.02 0.02 0.03 0.03 0.03 0.03 0.03 0.02 0.02 0.02 0.02 0.02 0.01 0.01 0.00 0.00 0.00 0.01 0.03 0.06 0.09 0.07 0.02 0.01 0.02 0.02 0.02 0.02 0.02 0.02 0.02 0.03 0.04 0.04 0.04
0.03 0.05 0.10 0.12 0.16 0.09 0.06 0.05 0.04 0.02 0.02 0.03 0.04 0.04 0.03 0.03 0.02 0.02 0.02 0.02 0.01 0.01 0.00 0.00 0.00 0.01 0.02 0.04 0.07 0.09 0.07 0.03 0.02 0.02 0.02 0.02 0.02 0.01 0.01 0.02 0.03 0.04 0.05
0.03 0.05 0.08 0.11 0.15 0.12 0.08 0.06 0.05 0.04 0.03 0.03 0.04 0.04 0.04 0.04 0.03 0.02 0.03 0.02 0.02 0.01 0.00 0.00 0.01 0.01 0.01 0.03 0.05 0.07 0.10 0.09 0.05 0.03 0.03 0.02 0.02 0.02 0.02 0.02 0.02 0.03 0.04
0.03 0.05 0.08 0.09 0.13 0.12 0.09 0.09 0.08 0.06 0.05 0.03 0.03 0.04 0.05 0.05 0.05 0.04 0.04 0.03 0.03 0.02 0.01 0.01 0.01 0.01 0.01 0.02 0.03 0.05 0.08 0.11 0.10 0.06 0.05 0.05 0.04 0.03 0.03 0.03 0.03 0.03 0.03
0.03 0.07 0.09 0.09 0.10 0.12 0.10 0.11 0.11 0.09 0.07 0.05 0.03 0.04 0.04 0.04 0.05 0.05 0.04 0.03 0.04 0.04 0.03 0.02 0.02 0.02 0.02 0.02 0.02 0.04 0.06 0.08 0.10 0.09 0.07 0.07 0.06 0.04 0.04 0.03 0.03 0.03 0.02
0.03 0.07 0.09 0.09 0.07 0.11 0.09 0.08 0.10 0.11 0.09 0.07 0.04 0.04 0.05 0.04 0.04 0.05 0.05 0.04 0.03 0.04 0.06 0.07 0.06 0.05 0.05 0.03 0.03 0.04 0.05 0.06 0.07 0.08 0.08 0.07 0.07 0.05 0.05 0.04 0.03 0.02 0.02
0.03 0.06 0.08 0.08 0.07 0.09 0.09 0.07 0.07 0.09 0.09 0.09 0.07 0.05 0.06 0.07 0.06 0.05 0.05 0.06 0.05 0.04 0.03 0.03 0.03 0.03 0.03 0.03 0.03 0.04 0.04 0.05 0.06 0.07 0.08 0.07 0.07 0.05 0.05 0.04 0.03 0.02 0.01
0.03 0.05 0.06 0.07 0.07 0.08 0.09 0.08 0.08 0.09 0.09 0.08 0.07 0.05 0.05 0.07 0.08 0.08 0.07 0.07 0.08 0.06 0.03 0.02 0.02 0.02 0.02 0.02 0.02 0.03 0.04 0.04 0.04 0.06 0.07 0.06 0.06 0.05 0.05 0.04 0.03 0.02 0.01
0.02 0.03 0.05 0.07 0.07 0.07 0.08 0.07 0.08 0.08 0.08 0.07 0.06 0.05 0.04 0.04 0.05 0.06 0.07 0.08 0.09 0.10 0.08 0.06 0.05 0.04 0.04 0.03 0.02 0.02 0.02 0.02 0.03 0.04 0.05 0.05 0.05 0.05 0.04 0.03 0.03 0.02 0.02
0.01 0.03 0.04 0.07 0.07 0.08 0.07 0.06 0.05 0.06 0.06 0.06 0.06 0.05 0.04 0.04 0.04 0.05 0.05 0.06 0.07 0.10 0.10 0.09 0.08 0.07 0.07 0.06 0.04 0.03 0.02 0.02 0.02 0.03 0.04 0.04 0.05 0.05 0.04 0.04 0.03 0.02 0.01
0.01 0.03 0.04 0.05 0.07 0.07 0.07 0.06 0.05 0.04 0.05 0.06 0.06 0.05 0.05 0.05 0.04 0.04 0.04 0.05 0.05 0.06 0.07 0.08 0.09 0.10 0.09 0.08 0.06 0.04 0.03 0.02 0.02 0.02 0.03 0.03 0.04 0.04 0.03 0.04 0.03 0.02 0.02
MSLP
1014.00 1014.12 1014.36 1014.72 1015.12 1015.52 1015.86 1016.09 1016.21 1016.24 1016.20 1016.14 1016.11 1016.13 1016.21 1016.33 1016.48 1016.63 1016.75 1016.84 1016.91 1016.98 1017.07 1017.18 1017.33 1017.51 1017.70 1017.87 1018.02 1018.14 1018.23 1018.30 1018.38 1018.48 1018.59 1018.72 1018.86 1018.98 1019.08 1019.16 1019.20 1019.23 1019.27
1013.96 1014.10 1014.36 1014.72 1015.14 1015.56 1015.93 1016.21 1016.37 1016.44 1016.44 1016.40 1016.38 1016.40 1016.47 1016.58 1016.71 1016.84 1016.96 1017.06 1017.16 1017.25 1017.38 1017.53 1017.72 1017.93 1018.14 1018.32 1018.47 1018.57 1018.63 1018.69 1018.75 1018.84 1018.97 1019.12 1019.29 1019.45 1019.59 1019.69 1019.76 1019.80 1019.84
1013.86 1014.03 1014.30 1014.68 1015.12 1015.57 1015.97 1016.29 1016.52 1016.63 1016.68 1016.68 1016.68 1016.70 1016.75 1016.84 1016.94 1017.05 1017.16 1017.26 1017.36 1017.49 1017.65 1017.85 1018.09 1018.33 1018.56 1018.74 1018.87 1018.95 1018.98 1019.01 1019.05 1019.14 1019.28 1019.46 1019.67 1019.88 1020.06 1020.20 1020.30 1020.36 1020.41
1013.79 1013.98 1014.28 1014.68 1015.14 1015.61 1016.05 1016.41 1016.67 1016.84 1016.92 1016.95 1016.96 1016.98 1017.02 1017.08 1017.16 1017.24 1017.33 1017.42 1017.54 1017.70 1017.90 1018.14 1018.42 1018.69 1018.93 1019.12 1019.24 1019.30 1019.31 1019.30 1019.33 1019.41 1019.56 1019.77 1020.02 1020.27 1020.51 1020.69 1020.82 1020.91 1020.97
1013.81 1014.04 1014.37 1014.79 1015.26 1015.75 1016.21 1016.59 1016.88 1017.07 1017.17 1017.21 1017.23 1017.23 1017.25 1017.29 1017.34 1017.40 1017.48 1017.58 1017.71 1017.89 1018.13 1018.41 1018.72 1019.02 1019.29 1019.49 1019.60 1019.64 1019.63 1019.61 1019.63 1019.70 1019.87 1020.10 1020.39 1020.69 1020.96 1021.19 1021.36 1021.47 1021.54
1013.98 1014.24 1014.60 1015.04 1015.52 1016.02 1016.48 1016.87 1017.15 1017.33 1017.43 1017.45 1017.45 1017.44 1017.45 1017.47 1017.51 1017.56 1017.64 1017.75 1017.90 1018.10 1018.36 1018.68 1019.02 1019.35 1019.64 1019.85 1019.97 1020.01 1020.00 1019.98 1019.99 1020.07 1020.24 1020.49 1020.81 1021.14 1021.45 1021.71 1021.91 1022.04 1022.13
1014.27 1014.57 1014.95 1015.41 1015.91 1016.41 1016.86 1017.22 1017.47 1017.62 1017.68 1017.68 1017.65 1017.62 1017.61 1017.63 1017.67 1017.74 1017.83 1017.96 1018.13 1018.35 1018.63 1018.96 1019.32 1019.68 1019.99 1020.22 1020.36 1020.43 1020.43 1020.42 1020.44 1020.53 1020.71 1020.97 1021.30 1021.65 1021.98 1022.27 1022.48 1022.63 1022.73
1014.63 1014.96 1015.37 1015.85 1016.36 1016.85 1017.28 1017.60 1017.81 1017.91 1017.92 1017.88 1017.82 1017.77 1017.76 1017.80 1017.86 1017.96 1018.09 1018.24 1018.43 1018.67 1018.96 1019.30 1019.66 1020.03 1020.35 1020.61 1020.79 1020.89 1020.92 1020.94 1020.98 1021.08 1021.27 1021.53 1021.85 1022.21 1022.55 1022.84 1023.07 1023.24 1023.36
1014.96 1015.32 1015.76 1016.25 1016.77 1017.26 1017.67 1017.96 1018.13 1018.18 1018.14 1018.06 1017.98 1017.93 1017.94 1018.00 1018.11 1018.26 1018.43 1018.61 1018.82 1019.07 1019.35 1019.68 1020.04 1020.40 1020.74 1021.03 1021.24 1021.39 1021.47 1021.53 1021.60 1021.71 1021.89 1022.15 1022.46 1022.80 1023.13 1023.43 1023.68 1023.86 1024.00
1015.19 1015.56 1016.02 1016.54 1017.06 1017.55 1017.95 1018.23 1018.37 1018.39 1018.33 1018.23 1018.15 1018.12 1018.16 1018.27 1018.44 1018.64 1018.85 1019.08 1019.30 1019.54 1019.81 1020.11 1020.44 1020.80 1021.15 1021.46 1021.72 1021.92 1022.06 1022.17 1022.27 1022.39 1022.57 1022.80 1023.09 1023.40 1023.72 1024.02 1024.27 1024.48 1024.65
1015.26 1015.65 1016.12 1016.65 1017.20 1017.69 1018.10 1018.38 1018.52 1018.55 1018.48 1018.40 1018.34 1018.34 1018.43 1018.60 1018.83 1019.09 1019.36 1019.60 1019.84 1020.07 1020.31 1020.58 1020.89 1021.23 1021.58 1021.92 1022.23 1022.48 1022.68 1022.83 1022.96 1023.09 1023.26 1023.46 1023.72 1024.00 1024.30 1024.59 1024.85 1025.09 1025.29
1015.21 1015.60 1016.07 1016.61 1017.16 1017.68 1018.11 1018.42 1018.59 1018.64 1018.62 1018.57 1018.56 1018.61 1018.76 1018.99 1019.28 1019.60 1019.90 1020.17 1020.41 1020.63 1020.84 1021.08 1021.36 1021.69 1022.05 1022.42 1022.77 1023.08 1023.33 1023.52 1023.67 1023.81 1023.95 1024.12 1024.33 1024.58 1024.85 1025.13 1025.41 1025.67 1025.91
1015.07 1015.46 1015.93 1016.47 1017.03 1017.56 1018.03 1018.37 1018.60 1018.71 1018.75 1018.76 1018.81 1018.92 1019.13 1019.41 1019.76 1020.11 1020.45 1020.74 1020.99 1021.20 1021.40 1021.62 1021.88 1022.20 1022.58 1022.97 1023.36 1023.71 1024.01 1024.24 1024.41 1024.54 1024.65 1024.79 1024.95 1025.15 1025.39 1025.66 1025.94 1026.23 1026.50
1014.94 1015.32 1015.77 1016.30 1016.86 1017.41 1017.90 1018.30 1018.59 1018.78 1018.89 1018.97 1019.08 1019.26 1019.51 1019.84 1020.22 1020.61 1020.97 1021.29 1021.54 1021.76 1021.96 1022.18 1022.45 1022.78 1023.17 1023.59 1024.02 1024.41 1024.74 1024.99 1025.16 1025.28 1025.37 1025.46 1025.57 1025.72 1025.93 1026.18 1026.46 1026.75 1027.05
1014.87 1015.24 1015.67 1016.17 1016.73 1017.29 1017.81 1018.26 1018.61 1018.87 1019.06 1019.21 1019.38 1019.60 1019.89 1020.25 1020.65 1021.06 1021.45 1021.78 1022.06 1022.30 1022.53 1022.77 1023.06 1023.42 1023.84 1024.29 1024.74 1025.16 1025.51 1025.77 1025.94 1026.04 1026.10 1026.15 1026.21 1026.32 1026.48 1026.70 1026.96 1027.25 1027.56
1014.88 1015.24 1015.66 1016.14 1016.68 1017.24 1017.79 1018.28 1018.69 1019.01 1019.26 1019.48 1019.69 1019.95 1020.26 1020.62 1021.03 1021.45 1021.86 1022.22 1022.54 1022.82 1023.09 1023.39 1023.72 1024.12 1024.56 1025.04 1025.52 1025.95 1026.30 1026.57 1026.73 1026.81 1026.84 1026.86 1026.88 1026.95 1027.07 1027.24 1027.47 1027.74 1028.02
1014.93 1015.30 1015.71 1016.18 1016.71 1017.28 1017.84 1018.36 1018.82 1019.19 1019.49 1019.75 1020.00 1020.27 1020.58 1020.95 1021.36 1021.79 1022.21 1022.60 1022.97 1023.32 1023.65 1024.01 1024.40 1024.84 1025.32 1025.81 1026.30 1026.73 1027.08 1027.34 1027.49 1027.56 1027.58 1027.57 1027.58 1027.61 1027.69 1027.83 1028.01 1028.23 1028.48
1014.96 1015.35 1015.77 1016.24 1016.77 1017.35 1017.92 1018.48 1018.97 1019.39 1019.73 1020.01 1020.28 1020.56 1020.87 1021.23 1021.63 1022.06 1022.50 1022.94 1023.36 1023.77 1024.18 1024.60 1025.05 1025.53 1026.04 1026.54 1027.02 1027.44 1027.78 1028.03 1028.18 1028.25 1028.27 1028.27 1028.27 1028.29 1028.35 1028.44 1028.58 1028.75 1028.94
1014.89 1015.32 1015.76 1016.26 1016.80 1017.39 1017.99 1018.57 1019.10 1019.55 1019.93 1020.24 1020.52 1020.80 1021.11 1021.45 1021.85 1022.29 1022.75 1023.22 1023.70 1024.17 1024.64 1025.13 1025.63 1026.14 1026.66 1027.16 1027.62 1028.03 1028.35 1028.59 1028.74 1028.83 1028.87 1028.89 1028.91 1028.95 1029.01 1029.08 1029.18 1029.29 1029.41
1014.68 1015.16 1015.64 1016.17 1016.74 1017.35 1017.98 1018.60 1019.15 1019.64 1020.05 1020.39 1020.69 1020.98 1021.28 1021.63 1022.03 1022.47 1022.95 1023.45 1023.97 1024.49 1025.01 1025.54 1026.07 1026.60 1027.12 1027.60 1028.05 1028.43 1028.73 1028.97 1029.14 1029.25 1029.34 1029.41 1029.48 1029.55 1029.63 1029.71 1029.78 1029.85 1029.91
1014.36 1014.88 1015.40 1015.96 1016.56 1017.20 1017.86 1018.51 1019.10 1019.62 1020.07 1020.44 1020.77 1021.08 1021.40 1021.75 1022.15 1022.60 1023.09 1023.61 1024.15 1024.70 1025.25 1025.80 1026.35 1026.88 1027.38 1027.85 1028.27 1028.62 1028.92 1029.15 1029.34 1029.50 1029.64 1029.77 1029.91 1030.04 1030.16 1030.27 1030.34 1030.38 1030.41
1014.01 1014.53 1015.07 1015.65 1016.27 1016.94 1017.62 1018.29 1018.92 1019.48 1019.96 1020.37 1020.74 1021.08 1021.42 1021.80 1022.21 1022.66 1023.16 1023.69 1024.23 1024.79 1025.35 1025.90 1026.44 1026.96 1027.44 1027.89 1028.28 1028.62 1028.90 1029.15 1029.36 1029.56 1029.76 1029.96 1030.17 1030.38 1030.56 1030.70 1030.80 1030.85 1030.85
1013.73 1014.23 1014.75 1015.32 1015.93 1016.60 1017.28 1017.96 1018.61 1019.20 1019.72 1020.18 1020.59 1020.97 1021.36 1021.76 1022.19 1022.65 1023.15 1023.67 1024.21 1024.75 1025.30 1025.84 1026.36 1026.86 1027.32 1027.75 1028.12 1028.45 1028.73 1028.99 1029.22 1029.46 1029.71 1029.98 1030.25 1030.52 1030.76 1030.96 1031.10 1031.17 1031.19
1013.64 1014.07 1014.53 1015.04 1015.61 1016.24 1016.89 1017.56 1018.20 1018.80 1019.36 1019.86 1020.32 1020.76 1021.19 1021.63 1022.09 1022.57 1023.06 1023.57 1024.09 1024.61 1025.13 1025.64 1026.14 1026.62 1027.07 1027.48 1027.86 1028.18 1028.47 1028.74 1028.99 1029.25 1029.53 1029.83 1030.15 1030.46 1030.76 1031.00 1031.19 1031.31 1031.36
1013.82 1014.13 1014.48 1014.89 1015.37 1015.91 1016.50 1017.12 1017.74 1018.33 1018.90 1019.43 1019.94 1020.44 1020.92 1021.41 1021.90 1022.40 1022.90 1023.40 1023.89 1024.38 1024.87 1025.36 1025.84 1026.31 1026.75 1027.17 1027.55 1027.88 1028.18 1028.45 1028.71 1028.98 1029.26 1029.56 1029.89 1030.22 1030.54 1030.83 1031.06 1031.23 1031.33
1014.26 1014.42 1014.62 1014.89 1015.24 1015.67 1016.16 1016.69 1017.25 1017.81 1018.37 1018.92 1019.47 1020.02 1020.56 1021.10 1021.63 1022.16 1022.67 1023.16 1023.64 1024.10 1024.57 1025.04 1025.50 1025.96 1026.42 1026.85 1027.24 1027.60 1027.91 1028.18 1028.44 1028.68 1028.94 1029.22 1029.52 1029.84 1030.16 1030.47 1030.73 1030.95 1031.10
Thickness
5684 5684 5682 5682 5682 5682 5682 5682 5682 5682 5682 5683 5684 5685 5686 5686 5687 5688 5689 5690 5691 5692 5693 5693 5693 5694 5694 5694 5695 5695 5696 5696 5697 5698 5698 5699 5700 5701 5701 5702 5703 5703 5703
5683 5681 5679 5679 5679 5678 5678 5678 5678 5678 5678 5679 5679 5680 5681 5682 5683 5683 5684 5685 5686 5687 5687 5688 5688 5689 5689 5689 5690 5690 5690 5691 5691 5693 5694 5695 5695 5696 5696 5697 5698 5698 5698
5678 5677 5675 5675 5675 5674 5673 5673 5674 5673 5674 5674 5675 5675 5676 5677 5678 5679 5679 5680 5681 5681 5682 5682 5683 5683 5683 5684 5684 5684 5685 5685 5686 5688 5690 5691 5690 5690 5691 5692 5692 5693 5693
5673 5673 5672 5671 5670 5669 5669 5669 5669 5669 5669 5669 5670 5670 5671 5672 5672 5673 5673 5674 5674 5675 5676 5676 5677 5677 5677 5678 5678 5679 5679 5679 5681 5683 5685 5686 5686 5685 5686 5687 5687 5687 5688
5668 5668 5667 5666 5665 5664 5664 5664 5664 5664 5664 5664 5665 5665 5665 5666 5667 5667 5667 5668 5668 5669 5669 5670 5670 5670 5671 5672 5672 5673 5673 5674 5676 5678 5679 5679 5680 5679 5680 5681 5682 5682 5682
5662 5662 5661 5660 5660 5659 5659 5659 5658 5658 5658 5659 5659 5659 5659 5660 5660 5661 5661 5661 5662 5662 5662 5663 5663 5664 5664 5665 5666 5666 5667 5669 5671 5672 5673 5673 5673 5673 5675 5675 5676 5676 5676
5656 5656 5655 5655 5654 5654 5653 5653 5653 5653 5653 5653 5652 5653 5653 5653 5654 5654 5655 5655 5655 5656 5656 5656 5656 5657 5657 5658 5659 5660 5661 5663 5665 5666 5666 5666 5666 5667 5668 5669 5670 5670 5670
5649 5649 5649 5648 5648 5648 5647 5647 5647 5647 5647 5647 5646 5646 5646 5646 5647 5647 5648 5648 5649 5649 5649 5649 5650 5650 5650 5651 5652 5653 5654 5656 5658 5659 5659 5659 5659 5661 5662 5663 5663 5664 5664
5641 5642 5642 5642 5641 5641 5641 5641 5640 5640 5640 5640 5640 5639 5639 5640 5640 5640 5641 5641 5641 5641 5642 5642 5642 5643 5643 5644 5644 5645 5647 5648 5651 5651 5651 5651 5652 5654 5655 5656 5656 5657 5657
5634 5635 5635 5635 5636 5635 5634 5634 5633 5633 5633 5632 5632 5632 5632 5632 5632 5633 5633 5633 5634 5634 5634 5634 5635 5635 5636 5636 5637 5638 5639 5641 5643 5643 5643 5643 5644 5646 5647 5648 5649 5650 5650
5626 5627 5628 5628 5629 5629 5628 5627 5626 5625 5625 5625 5625 5625 5625 5626 5626 5626 5626 5626 5626 5626 5626 5626 5627 5628 5628 5628 5629 5630 5632 5634 5634 5634 5634 5634 5636 5638 5639 5640 5642 5642 5643
5619 5619 5620 5622 5621 5622 5621 5620 5619 5618 5618 5618 5618 5618 5619 5619 5619 5619 5617 5617 5617 5618 5618 5618 5619 5620 5621 5622 5622 5623 5624 5625 5625 5625 5624 5626 5628 5629 5631 5632 5633 5634 5635
5613 5613 5613 5613 5613 5614 5614 5613 5612 5612 5611 5611 5611 5612 5612 5612 5612 5611 5611 5610 5610 5610 5610 5610 5611 5612 5613 5614 5614 5615 5615 5615 5615 5615 5615 5616 5618 5621 5622 5624 5625 5625 5627
5605 5606 5606 5605 5607 5607 5607 5606 5606 5605 5605 5605 5604 5605 5605 5605 5605 5604 5604 5603 5603 5602 5602 5602 5602 5603 5604 5604 5605 5606 5606 5606 5606 5606 5605 5606 5608 5611 5613 5615 5616 5617 5618
5597 5598 5598 5598 5600 5600 5600 5599 5599 5598 5598 5598 5598 5597 5598 5599 5598 5597 5596 5595 5595 5594 5594 5594 5594 5595 5595 5595 5595 5596 5596 5597 5597 5596 5596 5596 5598 5601 5603 5605 5607 5608 5609
5589 5590 5590 5591 5592 5593 5594 5594 5592 5592 5591 5591 5590 5590 5590 5591 5590 5589 5588 5587 5586 5585 5585 5585 5585 5586 5586 5586 5586 5586 5586 5587 5587 5586 5586 5587 5588 5590 5592 5594 5596 5598 5599
5581 5582 5583 5584 5585 5586 5587 5587 5585 5585 5584 5584 5583 5583 5583 5583 5582 5581 5580 5579 5578 5577 5577 5577 5577 5577 5577 5576 5576 5576 5576 5576 5576 5576 5576 5577 5578 5579 5581 5583 5585 5587 5588
5574 5575 5576 5577 5577 5578 5579 5579 5579 5578 5577 5576 5576 5575 5575 5575 5574 5574 5573 5571 5570 5569 5568 5568 5568 5568 5568 5567 5566 5565 5566 5565 5566 5566 5566 5566 5566 5567 5569 5570 5572 5575 5577
5566 5567 5568 5569 5570 5570 5571 5571 5571 5570 5569 5568 5568 5567 5567 5567 5567 5566 5565 5563 5562 5561 5560 5559 5559 5559 5558 5557 5556 5555 5555 5555 5554 5555 5555 5554 5555 5556 5557 5558 5560 5562 5565
5558 5559 5560 5561 5562 5562 5563 5562 5561 5561 5561 5560 5560 5559 5559 5558 5558 5558 5557 5556 5555 5554 5553 5552 5551 5550 5549 5547 5547 5545 5545 5544 5544 5543 5544 5543 5543 5544 5545 5547 5549 5550 5552
5548 5550 5552 5553 5553 5553 5555 5555 5554 5553 5553 5551 5551 5551 5551 5550 5550 5550 5550 5548 5547 5547 5546 5544 5543 5542 5540 5539 5540 5538 5535 5534 5534 5532 5532 5532 5532 5532 5533 5535 5537 5538 5540
5539 5541 5543 5544 5545 5545 5547 5547 5547 5545 5544 5543 5542 5542 5542 5542 5542 5542 5542 5541 5540 5539 5538 5537 5536 5534 5532 5532 5533 5534 5532 5527 5524 5521 5521 5520 5520 5520 5522 5523 5525 5526 5528
5530 5531 5533 5535 5536 5536 5538 5537 5536 5534 5533 5533 5533 5533 5533 5533 5533 5533 5533 5532 5532 5531 5531 5530 5529 5528 5526 5524 5525 5528 5529 5529 5518 5513 5510 5509 5509 5510 5510 5511 5513 5514 5516
5520 5521 5523 5525 5526 5527 5527 5528 5530 5531 5530 5529 5527 5526 5525 5524 5525 5524 5524 5524 5524 5523 5523 5522 5520 5520 5520 5518 5515 5514 5516 5517 5514 5508 5502 5500 5499 5499 5499 5500 5502 5503 5505
5510 5511 5512 5513 5515 5516 5517 5519 5521 5522 5522 5520 5518 5517 5517 5516 5515 5515 5516 5515 5515 5514 5514 5513 5512 5511 5511 5511 5508 5506 5505 5504 5505 5504 5499 5493 5490 5489 5488 5489 5491 5492 5493
5500 5500 5502 5504 5505 5506 5508 5509 5510 5511 5511 5510 5509 5509 5508 5507 5507 5506 5506 5507 5506 5505 5505 5504 5503 5502 5502 5501 5499 5498 5498 5498 5497 5496 5494 5488 5484 5480 5479 5479 5480 5481 5482